TimeCST,TemperatureF,Dew PointF,Humidity,Sea Level PressureIn,VisibilityMPH,Wind Direction,Wind SpeedMPH,Gust SpeedMPH,PrecipitationIn,Events,Conditions,WindDirDegrees,DateUTC
12:15 AM,7.5,3.0,82,30.31,10.0,NE,5.8,-,N/A,,Overcast,50,2013-12-14 06:15:00
12:35 AM,7.5,3.0,82,30.29,10.0,NE,5.8,-,N/A,,Overcast,50,2013-12-14 06:35:00
12:55 AM,7.3,3.0,82,30.28,10.0,NE,6.9,-,N/A,,Overcast,50,2013-12-14 06:55:00
1:15 AM,7.3,3.2,83,30.28,10.0,NE,5.8,-,N/A,,Overcast,50,2013-12-14 07:15:00
1:35 AM,7.3,3.2,83,30.27,10.0,NE,4.6,-,N/A,,Overcast,50,2013-12-14 07:35:00
1:55 AM,7.2,3.0,83,30.27,10.0,NE,8.1,-,N/A,,Overcast,50,2013-12-14 07:55:00
2:15 AM,7.0,2.8,83,30.26,10.0,ENE,5.8,-,N/A,,Overcast,60,2013-12-14 08:15:00
2:35 AM,6.8,2.7,83,30.27,10.0,NE,4.6,-,N/A,,Overcast,50,2013-12-14 08:35:00
2:55 AM,6.6,2.5,83,30.26,10.0,ENE,5.8,-,N/A,,Overcast,60,2013-12-14 08:55:00
3:15 AM,6.6,2.3,82,30.25,10.0,NE,5.8,-,N/A,,Mostly Cloudy,50,2013-12-14 09:15:00
3:35 AM,6.4,2.3,83,30.25,10.0,NE,4.6,-,N/A,,Overcast,40,2013-12-14 09:35:00
3:55 AM,6.4,2.3,83,30.25,10.0,NNE,5.8,-,N/A,,Mostly Cloudy,20,2013-12-14 09:55:00
4:15 AM,6.4,2.3,83,30.25,10.0,NNE,3.5,-,N/A,,Mostly Cloudy,30,2013-12-14 10:15:00
4:35 AM,6.6,2.3,82,30.24,10.0,NE,4.6,-,N/A,,Overcast,50,2013-12-14 10:35:00
4:55 AM,6.6,2.3,82,30.24,10.0,NE,4.6,-,N/A,,Overcast,50,2013-12-14 10:55:00
5:15 AM,6.6,2.3,82,30.23,7.0,NE,5.8,-,N/A,Snow,Light Snow,50,2013-12-14 11:15:00
5:35 AM,6.4,2.3,83,30.23,7.0,NE,4.6,-,N/A,Snow,Light Snow,50,2013-12-14 11:35:00
5:55 AM,6.6,2.7,84,30.23,10.0,NE,5.8,-,N/A,Snow,Light Snow,50,2013-12-14 11:55:00
6:15 AM,6.6,2.8,84,30.23,10.0,NE,5.8,-,N/A,,Overcast,40,2013-12-14 12:15:00
6:35 AM,6.4,2.7,84,30.23,10.0,NE,4.6,-,N/A,,Overcast,40,2013-12-14 12:35:00
6:55 AM,6.4,2.7,84,30.23,10.0,NE,4.6,-,N/A,,Overcast,40,2013-12-14 12:55:00
7:15 AM,6.4,2.3,83,30.23,10.0,NE,4.6,-,N/A,Snow,Light Snow,50,2013-12-14 13:15:00
7:35 AM,6.4,2.7,84,30.23,10.0,ENE,3.5,-,N/A,,Mostly Cloudy,60,2013-12-14 13:35:00
7:55 AM,6.4,2.7,84,30.23,10.0,ENE,4.6,-,N/A,,Overcast,60,2013-12-14 13:55:00
8:15 AM,6.4,2.7,84,30.22,10.0,ENE,3.5,-,N/A,,Overcast,70,2013-12-14 14:15:00
8:35 AM,6.8,2.8,84,30.22,10.0,ENE,3.5,-,N/A,,Overcast,60,2013-12-14 14:35:00
8:55 AM,6.8,3.0,84,30.21,5.0,ENE,4.6,-,N/A,Snow,Light Snow,70,2013-12-14 14:55:00
9:15 AM,7.0,3.0,84,30.22,10.0,Calm,Calm,-,N/A,,Overcast,0,2013-12-14 15:15:00
9:35 AM,7.7,3.2,82,30.22,10.0,Calm,Calm,-,N/A,,Overcast,0,2013-12-14 15:35:00
9:55 AM,8.1,3.6,82,30.21,5.0,Calm,Calm,-,N/A,Snow,Light Snow,0,2013-12-14 15:55:00
10:15 AM,8.2,3.7,82,30.21,7.0,Calm,Calm,-,N/A,Snow,Light Snow,0,2013-12-14 16:15:00
10:35 AM,8.4,3.7,81,30.20,4.0,Calm,Calm,-,N/A,Snow,Light Snow,0,2013-12-14 16:35:00
10:55 AM,9.3,4.1,79,30.18,4.0,Calm,Calm,-,N/A,,Haze,0,2013-12-14 16:55:00
11:14 AM,9.9,3.9,77,30.17,7.0,Calm,Calm,-,N/A,,Overcast,0,2013-12-14 17:14:00
11:35 AM,10.2,4.5,78,30.15,10.0,Calm,Calm,-,N/A,,Overcast,0,2013-12-14 17:35:00
11:55 AM,10.4,4.5,77,30.14,10.0,Calm,Calm,-,N/A,,Overcast,0,2013-12-14 17:55:00
12:14 PM,10.6,5.0,78,30.13,10.0,Calm,Calm,-,N/A,,Overcast,0,2013-12-14 18:14:00
12:35 PM,12.2,5.2,73,30.13,10.0,Calm,Calm,-,N/A,,Overcast,0,2013-12-14 18:35:00
12:55 PM,12.2,5.2,73,30.10,10.0,Calm,Calm,-,N/A,,Overcast,0,2013-12-14 18:55:00
1:14 PM,12.7,5.4,72,30.09,10.0,West,3.5,-,N/A,,Overcast,260,2013-12-14 19:14:00
1:35 PM,12.6,5.2,72,30.08,10.0,West,3.5,-,N/A,,Overcast,260,2013-12-14 19:35:00
1:55 PM,12.2,5.2,73,30.08,10.0,Calm,Calm,-,N/A,,Overcast,0,2013-12-14 19:55:00
2:15 PM,12.2,5.4,74,30.07,10.0,Calm,Calm,-,N/A,,Overcast,0,2013-12-14 20:15:00
2:35 PM,12.2,5.7,75,30.07,10.0,West,5.8,-,N/A,,Overcast,270,2013-12-14 20:35:00
2:55 PM,11.3,4.8,75,30.07,10.0,West,6.9,-,N/A,,Overcast,280,2013-12-14 20:55:00
3:15 PM,10.4,4.3,76,30.07,10.0,West,6.9,-,N/A,,Overcast,280,2013-12-14 21:15:00
3:35 PM,10.0,4.1,77,30.07,10.0,West,5.8,-,N/A,,Overcast,260,2013-12-14 21:35:00
3:55 PM,9.9,4.3,78,30.06,10.0,West,4.6,-,N/A,,Overcast,270,2013-12-14 21:55:00
4:15 PM,9.9,4.6,79,30.06,7.0,West,6.9,-,N/A,Snow,Light Snow,260,2013-12-14 22:15:00
4:35 PM,9.0,4.1,81,30.06,7.0,West,5.8,-,N/A,,Overcast,270,2013-12-14 22:35:00
4:54 PM,8.2,3.6,81,30.06,10.0,West,6.9,-,N/A,,Overcast,270,2013-12-14 22:54:00
5:15 PM,8.1,3.2,81,30.06,10.0,West,5.8,-,N/A,,Overcast,270,2013-12-14 23:15:00
5:35 PM,7.7,3.2,82,30.06,10.0,West,3.5,-,N/A,,Overcast,260,2013-12-14 23:35:00
5:54 PM,7.5,3.0,82,30.06,10.0,West,6.9,-,N/A,,Overcast,260,2013-12-14 23:54:00
6:15 PM,7.2,2.3,80,30.06,10.0,West,6.9,-,N/A,,Overcast,280,2013-12-15 00:15:00
6:35 PM,6.8,2.1,81,30.06,10.0,West,6.9,-,N/A,,Overcast,280,2013-12-15 00:35:00
6:54 PM,6.8,2.1,81,30.05,10.0,West,5.8,-,N/A,,Overcast,280,2013-12-15 00:54:00
7:15 PM,6.8,2.1,81,30.05,10.0,West,8.1,-,N/A,,Overcast,280,2013-12-15 01:15:00
7:35 PM,6.8,1.8,80,30.05,10.0,WNW,4.6,-,N/A,,Overcast,290,2013-12-15 01:35:00
7:55 PM,6.6,1.4,79,30.05,10.0,WNW,4.6,-,N/A,,Overcast,290,2013-12-15 01:55:00
8:15 PM,6.4,1.0,78,30.04,10.0,WNW,5.8,-,N/A,,Overcast,300,2013-12-15 02:15:00
8:35 PM,6.3,0.5,77,30.04,10.0,WNW,8.1,-,N/A,,Overcast,290,2013-12-15 02:35:00
8:55 PM,5.9,0.3,78,30.04,10.0,WNW,5.8,-,N/A,,Overcast,290,2013-12-15 02:55:00
9:15 PM,5.7,-0.4,76,30.05,10.0,WNW,4.6,-,N/A,,Overcast,290,2013-12-15 03:15:00
9:35 PM,5.0,-1.1,76,30.04,10.0,WNW,4.6,-,N/A,,Overcast,290,2013-12-15 03:35:00
9:55 PM,2.7,-3.3,76,30.04,10.0,WNW,4.6,-,N/A,,Scattered Clouds,290,2013-12-15 03:55:00
10:15 PM,0.9,-4.2,79,30.04,10.0,West,4.6,-,N/A,,Scattered Clouds,270,2013-12-15 04:15:00
10:35 PM,-0.6,-5.1,81,30.05,10.0,West,5.8,-,N/A,,Mostly Cloudy,270,2013-12-15 04:35:00
10:55 PM,-0.9,-5.3,82,30.06,10.0,West,6.9,-,N/A,,Mostly Cloudy,270,2013-12-15 04:55:00
11:15 PM,-1.3,-5.8,81,30.06,10.0,West,5.8,-,N/A,,Mostly Cloudy,280,2013-12-15 05:15:00
11:35 PM,-2.2,-6.9,80,30.06,10.0,WNW,8.1,-,N/A,,Mostly Cloudy,290,2013-12-15 05:35:00
11:55 PM,-3.1,-7.8,80,30.06,10.0,West,8.1,-,N/A,,Mostly Cloudy,280,2013-12-15 05:55:00